Ostrava, Czech Republic

5:31 AM CEST on May 28, 2017 (GMT +0200)
Mosnov

Weather History for LKMT - April, 2013

Change the Weather History Date:

Monday, April 1, 2013

  Actual Average Record
Temperature  
Mean Temperature 28 °F -  
Max Temperature 34 °F 56 °F - ()
Min Temperature 23 °F 37 °F - ()
Degree Days  
Heating Degree Days 36    
Moisture  
Dew Point 25 °F    
Average Humidity 84    
Maximum Humidity 100    
Minimum Humidity 58    
Precipitation  
Precipitation 0.00 in 0.07 in - ()
Sea Level Pressure  
Sea Level Pressure 29.76 in    
Wind  
Wind Speed 6 mph ()    
Max Wind Speed 13 mph    
Max Gust Speed -    
Visibility 4.8 miles    
Events Snow    
T = Trace of Precipitation, MM = Missing Value Source: Averaged Metar Reports

Daily Weather History Graph

Daily Weather History Graph

Search for Another Location

Airport or City:

Trip Planner

Search our weather history database for the weather conditions in past years. The results will help you decide how hot, cold, wet, or windy it might be!

Date:

Astronomy

Apr. 01, 2013 Rise Set
Actual Time 6:24 AM CEST 7:19 PM CEST
Civil Twilight 5:51 AM CEST 7:51 PM CEST
Nautical Twilight 5:12 AM CEST 8:31 PM CEST
Astronomical Twilight 4:31 AM CEST 9:12 PM CEST
Moon 12:33 AM CEST (4/1) 9:27 AM CEST (4/1)
Length of Visible Light 13h 59m
Length of Day
12h 54m
Waning Gibbous, 70% of the Moon is Illuminated
Apr 1
Waning Gibbous
Apr 3
Last Quarter
Apr 10
New
Apr 18
First Quarter
Apr 25
Full

Hourly Weather History & Observations

Time (CEST) Temp. Windchill Dew Point Humidity Pressure Visibility Wind Dir Wind Speed Gust Speed Precip Events Conditions
12:00 AM 28.4 °F 19.1 °F 24.8 °F 86% 29.65 in 5.0 mi NNW 10.4 mph - N/A Snow Light Snow
12:30 AM 28.4 °F 20.4 °F 24.8 °F 86% 29.68 in 5.0 mi NNW 8.1 mph - N/A Snow Light Snow
1:00 AM 28.4 °F 21.2 °F 24.8 °F 86% 29.68 in 5.0 mi NW 6.9 mph - N/A Snow Light Snow
1:30 AM 28.4 °F 22.2 °F 24.8 °F 86% 29.68 in 5.6 mi NW 5.8 mph - N/A Snow Light Snow
2:00 AM 28 °F - 25 °F 83% 29.75 in 6 mi 4.5 mph - - Snow Light Snow
2:00 AM 28.4 °F 23.3 °F 24.8 °F 86% 29.68 in 5.6 mi WNW 4.6 mph - N/A Snow Light Snow
2:30 AM 28.4 °F 24.6 °F 24.8 °F 86% 29.68 in 5.6 mi SW 3.5 mph - N/A Snow Light Snow
3:00 AM 28.4 °F 24.6 °F 24.8 °F 86% 29.68 in 5.6 mi WSW 3.5 mph - N/A Snow Light Snow
3:30 AM 28.4 °F 24.6 °F 24.8 °F 86% 29.68 in 3.1 mi South 3.5 mph - N/A Snow Light Snow
4:00 AM 26.6 °F 21.2 °F 26.6 °F 100% 29.71 in 2.5 mi South 4.6 mph - N/A Snow Light Snow
4:08 AM 26.6 °F 21.2 °F 26.6 °F 100% 29.71 in 1.2 mi South 4.6 mph - N/A Snow Light Snow
4:30 AM 26.6 °F 21.2 °F 26.6 °F 100% 29.71 in 1.9 mi South 4.6 mph - N/A Snow Light Snow
5:00 AM 26.6 °F 19.1 °F 24.8 °F 93% 29.68 in 1.9 mi SSW 6.9 mph - N/A Snow Light Snow
5:30 AM 26.6 °F 20.0 °F 24.8 °F 93% 29.68 in 3.1 mi SSW 5.8 mph - N/A Snow Light Snow
6:00 AM 26.6 °F 20.0 °F 24.8 °F 93% 29.68 in 4.3 mi South 5.8 mph - N/A Snow Light Snow
6:30 AM 24.8 °F 16.9 °F 23.0 °F 93% 29.71 in 2.5 mi SSW 6.9 mph - N/A Snow Light Snow
7:00 AM 23.0 °F 17.0 °F 21.2 °F 93% 29.71 in 3.7 mi SW 4.6 mph - N/A   Partly Cloudy
7:30 AM 23.0 °F 15.8 °F 21.2 °F 93% 29.71 in 3.1 mi SW 5.8 mph - N/A   Mostly Cloudy
8:00 AM 25 °F - 24 °F 92% 29.80 in 2 mi SW 13.4 mph - - Snow Light Snow
8:00 AM 24.8 °F 13.4 °F 23.0 °F 93% 29.71 in 2.5 mi SW 12.7 mph - N/A Snow Light Snow
8:30 AM 24.8 °F 14.6 °F 23.0 °F 93% 29.74 in 3.1 mi SW 10.4 mph - N/A   Mostly Cloudy
9:00 AM 26.6 °F 16.8 °F 24.8 °F 93% 29.74 in 5.0 mi SW 10.4 mph - N/A   Mostly Cloudy
9:30 AM 28.4 °F 21.2 °F 24.8 °F 86% 29.74 in 5.6 mi SSW 6.9 mph - N/A   Mostly Cloudy
10:00 AM 26.6 °F 20.0 °F 23.0 °F 86% 29.74 in 5.0 mi SW 5.8 mph - N/A   Mostly Cloudy
10:30 AM 30.2 °F 23.4 °F 26.6 °F 86% 29.74 in 5.0 mi SW 6.9 mph - N/A   Mostly Cloudy
11:00 AM 30.2 °F 22.6 °F 26.6 °F 86% 29.74 in 5.6 mi SW 8.1 mph - N/A   Mostly Cloudy
11:30 AM 32.0 °F 24.8 °F 24.8 °F 75% 29.74 in 5.6 mi SW 8.1 mph - N/A   Mostly Cloudy
12:00 PM 33.8 °F 27.7 °F 24.8 °F 70% 29.74 in 6.2 mi SW 6.9 mph - N/A   Mostly Cloudy
12:30 PM 32.0 °F 25.6 °F 24.8 °F 75% 29.77 in 5.0 mi SW 6.9 mph - N/A Snow Light Snow
1:00 PM 32.0 °F 26.4 °F 24.8 °F 75% 29.77 in 6.2 mi WSW 5.8 mph - N/A Snow Light Snow
1:30 PM 32.0 °F 26.4 °F 23.0 °F 69% 29.77 in 6.2 mi SW 5.8 mph - N/A   Overcast
2:00 PM 33 °F - 24 °F 58% 29.83 in 7 mi SW 6.7 mph - - Snow Light Snow
2:00 PM 33.8 °F 27.7 °F 23.0 °F 65% 29.77 in 6.2 mi SW 6.9 mph - N/A   Overcast
2:30 PM 33.8 °F 27.0 °F 24.8 °F 70% 29.77 in 6.2 mi WSW 8.1 mph - N/A Snow Light Snow
3:00 PM 33.8 °F 25.3 °F 23.0 °F 65% 29.77 in 6.2 mi SW 11.5 mph - N/A Snow Light Snow
3:30 PM 33.8 °F 25.3 °F 24.8 °F 70% 29.80 in 6.2 mi SW 11.5 mph - N/A   Scattered Clouds
4:00 PM 33.8 °F 25.3 °F 24.8 °F 70% 29.80 in 6.2 mi SW 11.5 mph - N/A   Scattered Clouds
4:30 PM 33.8 °F 26.4 °F 24.8 °F 70% 29.80 in 6.2 mi SW 9.2 mph - N/A   Scattered Clouds
5:00 PM 33.8 °F 26.4 °F 24.8 °F 70% 29.80 in 6.2 mi SSW 9.2 mph - N/A   Scattered Clouds
5:30 PM 33.8 °F 27.0 °F 24.8 °F 70% 29.80 in 6.2 mi SW 8.1 mph - N/A   Scattered Clouds
6:00 PM 33.8 °F 27.0 °F 23.0 °F 65% 29.80 in 6.2 mi SSW 8.1 mph - N/A   Mostly Cloudy
6:30 PM 32.0 °F 26.4 °F 26.6 °F 80% 29.83 in 6.2 mi North 5.8 mph - N/A   Mostly Cloudy
7:00 PM 30.2 °F 22.6 °F 28.4 °F 93% 29.83 in 4.3 mi NNE 8.1 mph - N/A Snow Light Snow
7:30 PM 30.2 °F 23.4 °F 26.6 °F 86% 29.83 in 4.3 mi NE 6.9 mph - N/A Snow Light Snow
8:00 PM 30 °F - 27 °F 85% 29.91 in 6 mi NE 2.2 mph - - Snow Light Snow
8:00 PM 30.2 °F - 28.4 °F 93% 29.86 in 6.2 mi NE 2.3 mph - N/A   Mostly Cloudy
8:30 PM 30.2 °F 26.7 °F 26.6 °F 86% 29.86 in 6.2 mi NE 3.5 mph - N/A   Overcast
9:00 PM 30.2 °F - 28.4 °F 93% 29.86 in 5.6 mi ENE 2.3 mph - N/A Snow Light Snow
9:30 PM 30.2 °F - 28.4 °F 93% 29.86 in 5.0 mi Variable 2.3 mph - N/A Snow Light Snow
10:00 PM 30.2 °F - 28.4 °F 93% 29.86 in 3.1 mi Variable 1.2 mph - N/A Snow Light Snow
10:30 PM 30.2 °F - 28.4 °F 93% 29.86 in 3.1 mi WNW 1.2 mph - N/A Snow Light Snow
11:00 PM 30.2 °F - 28.4 °F 93% 29.89 in 3.7 mi Calm Calm - N/A Snow Light Snow
11:30 PM 30.2 °F - 28.4 °F 93% 29.89 in 3.1 mi Calm Calm - N/A Snow Light Snow